Location: Newark
(51.0500°N, 12.4500°E)
Time: 15:59:10
(UTC+00:00)

Vanguard 1 Rocket - Visible Passes

Search period start: 19 February 2020 00:00
Search period end: 29 February 2020 00:00
Orbit: 650 x 4226 km, 34.3° (Epoch: 18 February)

Date Brightness Start Highest point End Pass type
(mag) Time Alt. Az. Time Alt. Az. Time Alt. Az.
19 Feb 9.1 04:36:29 10° S 04:36:58 10° S 04:37:27 10° S visible
22 Feb 9.2 03:30:31 11° SSE 03:30:31 11° SSE 03:31:00 10° SSE visible
24 Feb 9.2 03:33:21 11° S 03:33:21 11° S 03:33:59 10° SSE visible
26 Feb 9.2 03:36:12 11° S 03:36:12 11° S 03:36:41 10° S visible
